TimeCST,TemperatureF,Dew PointF,Humidity,Sea Level PressureIn,VisibilityMPH,Wind Direction,Wind SpeedMPH,Gust SpeedMPH,PrecipitationIn,Events,Conditions,WindDirDegrees,DateUTC
12:15 AM,45.1,45.1,100,30.25,5.0,East,3.5,-,N/A,,Heavy Drizzle,80,2013-01-06 06:15:00
12:35 AM,44.8,44.8,100,30.25,10.0,Calm,Calm,-,0.01,,Unknown,0,2013-01-06 06:35:00
12:55 AM,45.0,45.0,100,30.25,10.0,ENE,3.5,-,0.01,,Unknown,70,2013-01-06 06:55:00
1:15 AM,44.8,44.8,100,30.24,10.0,ENE,3.5,-,N/A,,Unknown,60,2013-01-06 07:15:00
1:35 AM,44.8,44.8,100,30.24,10.0,Calm,Calm,-,N/A,,Unknown,0,2013-01-06 07:35:00
1:55 AM,45.1,45.1,100,30.24,10.0,NE,3.5,-,N/A,,Unknown,40,2013-01-06 07:55:00
2:15 AM,45.1,45.1,100,30.23,10.0,NE,3.5,-,N/A,,Light Drizzle,40,2013-01-06 08:15:00
2:35 AM,45.1,45.1,100,30.24,7.0,NNE,3.5,-,N/A,,Light Drizzle,30,2013-01-06 08:35:00
2:55 AM,45.1,45.1,100,30.24,4.0,North,3.5,-,0.01,,Heavy Drizzle,10,2013-01-06 08:55:00
3:15 AM,45.0,45.0,100,30.23,4.0,NE,4.6,-,0.04,Rain,Rain,40,2013-01-06 09:15:00
3:35 AM,44.6,44.6,100,30.22,5.0,ENE,4.6,-,0.12,Rain,Rain,60,2013-01-06 09:35:00
3:55 AM,44.6,44.6,100,30.23,5.0,North,10.4,-,0.19,Rain,Heavy Rain,360,2013-01-06 09:55:00
4:15 AM,44.2,44.2,100,30.22,10.0,NE,6.9,-,0.01,Rain,Light Rain,50,2013-01-06 10:15:00
4:35 AM,44.1,44.1,100,30.23,10.0,NNE,6.9,-,0.01,,Unknown,20,2013-01-06 10:35:00
4:55 AM,43.9,43.9,100,30.24,10.0,NNE,8.1,-,0.01,,Drizzle,20,2013-01-06 10:55:00
5:15 AM,43.7,43.7,100,30.24,5.0,NNE,8.1,-,0.06,Rain,Rain,30,2013-01-06 11:15:00
5:35 AM,43.7,43.7,100,30.24,5.0,NE,6.9,-,0.12,Rain,Rain,40,2013-01-06 11:35:00
5:55 AM,43.7,43.7,100,30.24,7.0,NNE,6.9,-,0.17,Rain,Rain,20,2013-01-06 11:55:00
6:15 AM,43.7,43.7,100,30.25,10.0,North,9.2,-,0.02,Rain,Light Rain,10,2013-01-06 12:15:00
6:35 AM,44.1,44.1,100,30.26,10.0,NNE,8.1,-,0.04,Rain,Rain,30,2013-01-06 12:35:00
6:55 AM,44.1,44.1,100,30.27,10.0,NNE,6.9,-,0.07,Rain,Light Rain,20,2013-01-06 12:55:00
7:15 AM,44.2,44.2,100,30.28,7.0,NE,4.6,-,0.06,Rain,Rain,40,2013-01-06 13:15:00
7:35 AM,44.2,44.2,100,30.29,10.0,NNE,5.8,-,0.09,Rain,Rain,30,2013-01-06 13:35:00
7:55 AM,44.2,44.2,100,30.29,5.0,NE,6.9,-,0.12,Rain,Light Rain,40,2013-01-06 13:55:00
8:15 AM,44.6,44.6,100,30.30,10.0,NE,6.9,-,N/A,,Light Drizzle,50,2013-01-06 14:15:00
8:35 AM,44.6,44.6,100,30.30,5.0,NE,4.6,-,0.01,Rain,Heavy Rain,40,2013-01-06 14:35:00
8:55 AM,44.6,44.6,100,30.31,4.0,NE,5.8,-,0.03,Rain,Light Rain,40,2013-01-06 14:55:00
9:35 AM,44.8,44.8,100,30.31,7.0,NNE,8.1,-,0.01,,Light Drizzle,20,2013-01-06 15:35:00
9:55 AM,45.1,45.1,100,30.30,10.0,NNE,9.2,-,0.01,,Unknown,30,2013-01-06 15:55:00
10:15 AM,45.1,45.1,100,30.31,10.0,NNE,9.2,-,N/A,,Unknown,30,2013-01-06 16:15:00
10:35 AM,45.3,45.3,100,30.31,10.0,NNE,6.9,-,N/A,,Unknown,20,2013-01-06 16:35:00
10:55 AM,45.7,45.7,100,30.30,10.0,North,8.1,-,N/A,,Unknown,10,2013-01-06 16:55:00
11:15 AM,45.5,45.5,100,30.29,10.0,NNE,8.1,-,N/A,,Unknown,20,2013-01-06 17:15:00
11:35 AM,45.5,45.5,100,30.28,10.0,NNE,8.1,-,N/A,,Light Drizzle,30,2013-01-06 17:35:00
11:55 AM,45.9,45.9,100,30.28,10.0,NNE,8.1,-,N/A,Rain,Light Rain,20,2013-01-06 17:55:00
12:15 PM,46.0,46.0,100,30.27,10.0,NNE,5.8,-,N/A,,Unknown,30,2013-01-06 18:15:00
12:35 PM,46.8,46.8,100,30.25,10.0,NNE,6.9,-,N/A,,Unknown,30,2013-01-06 18:35:00
12:55 PM,47.3,47.3,100,30.25,10.0,NE,6.9,-,N/A,,Unknown,40,2013-01-06 18:55:00
1:15 PM,47.8,47.8,100,30.25,10.0,NE,11.5,-,N/A,,Unknown,40,2013-01-06 19:15:00
1:35 PM,47.7,47.7,100,30.24,10.0,NNE,11.5,-,N/A,,Unknown,30,2013-01-06 19:35:00
1:55 PM,48.0,48.0,100,30.24,10.0,North,8.1,-,N/A,,Unknown,10,2013-01-06 19:55:00
2:15 PM,48.4,46.2,92,30.25,10.0,NE,8.1,-,N/A,,Unknown,40,2013-01-06 20:15:00
2:55 PM,49.3,46.6,90,30.25,10.0,NNE,6.9,-,N/A,,Unknown,20,2013-01-06 20:55:00
3:15 PM,49.3,42.8,78,30.24,10.0,NNE,5.8,-,N/A,,Unknown,20,2013-01-06 21:15:00
3:35 PM,49.5,42.6,77,30.24,10.0,North,5.8,-,N/A,,Unknown,10,2013-01-06 21:35:00
3:55 PM,49.6,42.6,77,30.25,10.0,NNE,4.6,-,N/A,,Unknown,30,2013-01-06 21:55:00
4:15 PM,49.5,42.4,77,30.25,10.0,NNE,9.2,-,N/A,,Unknown,30,2013-01-06 22:15:00
4:55 PM,46.9,42.8,86,30.25,10.0,North,3.5,-,N/A,,Unknown,360,2013-01-06 22:55:00
5:15 PM,47.3,42.3,83,30.26,10.0,Calm,Calm,-,N/A,,Unknown,0,2013-01-06 23:15:00
5:35 PM,46.2,41.4,83,30.26,10.0,Calm,Calm,-,N/A,,Unknown,0,2013-01-06 23:35:00
5:55 PM,43.0,43.0,100,30.27,10.0,Calm,Calm,-,N/A,,Unknown,0,2013-01-06 23:55:00
6:15 PM,42.6,42.6,100,30.28,10.0,Calm,Calm,-,N/A,,Unknown,0,2013-01-07 00:15:00
6:35 PM,42.8,42.8,100,30.28,10.0,Calm,Calm,-,N/A,,Unknown,0,2013-01-07 00:35:00
6:55 PM,41.9,41.9,100,30.29,10.0,Calm,Calm,-,N/A,,Unknown,0,2013-01-07 00:55:00
7:15 PM,41.5,41.5,100,30.29,10.0,Calm,Calm,-,N/A,,Unknown,0,2013-01-07 01:15:00
7:35 PM,41.0,41.0,100,30.29,10.0,Calm,Calm,-,N/A,,Unknown,0,2013-01-07 01:35:00
7:55 PM,41.5,41.5,100,30.30,10.0,Calm,Calm,-,N/A,,Unknown,0,2013-01-07 01:55:00
8:15 PM,41.4,41.4,100,30.30,10.0,Calm,Calm,-,N/A,,Unknown,0,2013-01-07 02:15:00
8:35 PM,41.2,41.2,100,30.30,10.0,North,4.6,-,N/A,,Unknown,360,2013-01-07 02:35:00
8:55 PM,41.4,41.4,100,30.30,10.0,North,3.5,-,N/A,,Unknown,360,2013-01-07 02:55:00
9:15 PM,41.0,41.0,100,30.31,10.0,North,4.6,-,N/A,,Unknown,10,2013-01-07 03:15:00
9:35 PM,41.0,41.0,100,30.31,10.0,North,4.6,-,N/A,,Unknown,350,2013-01-07 03:35:00
9:55 PM,40.6,40.6,100,30.31,10.0,North,4.6,-,N/A,,Unknown,10,2013-01-07 03:55:00
10:15 PM,41.2,41.2,100,30.32,10.0,NNE,4.6,-,N/A,,Unknown,20,2013-01-07 04:15:00
10:35 PM,41.5,41.5,100,30.33,10.0,NNE,3.5,-,N/A,,Unknown,20,2013-01-07 04:35:00
10:55 PM,39.9,39.9,100,30.32,10.0,NNE,3.5,-,N/A,,Unknown,20,2013-01-07 04:55:00
11:35 PM,39.6,39.6,100,30.33,7.0,Calm,Calm,-,N/A,,Unknown,0,2013-01-07 05:35:00
11:55 PM,39.6,39.6,100,30.33,10.0,Calm,Calm,-,N/A,,Unknown,0,2013-01-07 05:55:00